TimeEDT,TemperatureF,Dew PointF,Humidity,Sea Level PressureIn,VisibilityMPH,Wind Direction,Wind SpeedMPH,Gust SpeedMPH,PrecipitationIn,Events,Conditions,WindDirDegrees,DateUTC
12:10 AM,33.1,30.0,89,29.99,2.5,NNW,15.0,-,0.00,Snow,Light Snow,330,2014-03-30 04:10:00
12:20 AM,33.1,30.0,89,30.00,2.5,NNW,17.3,25.3,0.00,Snow,Light Snow,330,2014-03-30 04:20:00
12:45 AM,33.1,30.0,89,30.01,3.0,NNW,16.1,23.0,0.00,Snow,Light Snow,330,2014-03-30 04:45:00
12:53 AM,33.1,30.0,89,30.03,4.0,NNW,17.3,25.3,0.00,,Overcast,330,2014-03-30 04:53:00
1:29 AM,33.1,28.9,85,30.01,7.0,NNW,15.0,24.2,N/A,,Overcast,340,2014-03-30 05:29:00
1:53 AM,33.1,28.9,85,30.04,8.0,NNW,16.1,21.9,N/A,,Overcast,340,2014-03-30 05:53:00
2:53 AM,33.1,28.9,85,30.04,7.0,NNW,15.0,27.6,N/A,,Overcast,340,2014-03-30 06:53:00
3:53 AM,33.1,28.9,85,30.04,7.0,NNW,16.1,21.9,N/A,,Overcast,340,2014-03-30 07:53:00
4:53 AM,33.1,28.9,85,30.06,7.0,NNW,13.8,20.7,N/A,,Overcast,340,2014-03-30 08:53:00
5:53 AM,33.1,28.0,82,30.09,8.0,NNW,17.3,-,N/A,,Overcast,340,2014-03-30 09:53:00
6:38 AM,32.0,27.0,82,30.07,9.0,NNW,13.8,-,N/A,,Mostly Cloudy,340,2014-03-30 10:38:00
6:53 AM,32.0,27.0,82,30.10,9.0,NNW,13.8,-,N/A,,Scattered Clouds,330,2014-03-30 10:53:00
7:53 AM,30.9,25.0,79,30.12,9.0,NNW,11.5,23.0,N/A,,Clear,330,2014-03-30 11:53:00
8:53 AM,30.9,24.1,76,30.15,10.0,NNW,17.3,-,N/A,,Clear,330,2014-03-30 12:53:00
9:53 AM,32.0,25.0,75,30.16,10.0,NW,13.8,-,N/A,,Clear,320,2014-03-30 13:53:00
10:53 AM,35.1,26.1,70,30.17,10.0,NW,11.5,-,N/A,,Clear,320,2014-03-30 14:53:00
11:53 AM,39.0,27.0,62,30.16,10.0,NNW,11.5,-,N/A,,Clear,340,2014-03-30 15:53:00
12:53 PM,41.0,26.1,55,30.16,10.0,NNW,13.8,-,N/A,,Clear,330,2014-03-30 16:53:00
1:53 PM,43.0,27.0,53,30.16,10.0,WNW,11.5,19.6,N/A,,Clear,300,2014-03-30 17:53:00
2:53 PM,46.9,27.0,46,30.14,10.0,NNW,11.5,-,N/A,,Clear,330,2014-03-30 18:53:00
3:53 PM,48.0,26.1,42,30.13,10.0,NNW,11.5,-,N/A,,Clear,330,2014-03-30 19:53:00
4:53 PM,48.9,27.0,43,30.13,10.0,NNW,16.1,-,N/A,,Clear,330,2014-03-30 20:53:00
5:53 PM,48.9,28.0,44,30.12,10.0,NW,10.4,-,N/A,,Clear,320,2014-03-30 21:53:00
6:53 PM,48.0,27.0,44,30.14,10.0,NW,9.2,-,N/A,,Clear,320,2014-03-30 22:53:00
7:53 PM,43.0,28.0,56,30.14,10.0,NNW,4.6,-,N/A,,Clear,340,2014-03-30 23:53:00
8:53 PM,37.0,28.0,70,30.17,10.0,Calm,Calm,-,N/A,,Clear,0,2014-03-31 00:53:00
9:53 PM,32.0,27.0,82,30.18,10.0,Calm,Calm,-,N/A,,Clear,0,2014-03-31 01:53:00
10:53 PM,30.9,27.0,85,30.19,10.0,Calm,Calm,-,N/A,,Clear,0,2014-03-31 02:53:00
11:53 PM,30.0,26.1,85,30.19,10.0,Calm,Calm,-,N/A,,Clear,0,2014-03-31 03:53:00